Stations météo

Publicité
Santon Downham, Grande-Bretagne (99118): Température de l'air & dewpoint: 21.10.2020 17:00:00 - 27.10.2020 17:00:00 (GMT)Santon Downham, Grande-Bretagne (99118): Température de l'air -20cm & Température de l'air -100cm: 21.10.2020 17:00:00 - 27.10.2020 17:00:00 (GMT)Santon Downham, Grande-Bretagne (99118): Quantités de précipitations: 21.10.2020 17:00:00 - 27.10.2020 17:00:00 (GMT)
Date & Time tt [°C] td [°C] tt -20cm [°C] tt -100cm [°C] rr [mm]
27.10.2020 17:00:00 - - - - 0,4
27.10.2020 16:00:00 12,1 11,3 - - 0,2
27.10.2020 15:00:00 11,3 10,6 - - 0,4
27.10.2020 14:00:00 11,1 10,3 - - 0,6
27.10.2020 13:00:00 10,3 9,5 - - 0,2
27.10.2020 12:00:00 9,6 8,9 - - 0,2
27.10.2020 11:00:00 9,7 8,3 - - 0,2
27.10.2020 10:00:00 8,7 7,1 - - 0,2
27.10.2020 09:00:00 8,8 6,7 10,9 12,7 0,0
27.10.2020 08:00:00 8,1 6,0 - - 0,0
27.10.2020 07:00:00 7,4 6,4 - - 0,0
27.10.2020 06:00:00 5,8 5,2 - - 0,0
27.10.2020 05:00:00 6,3 5,6 - - 0,0
27.10.2020 04:00:00 6,7 5,8 - - 0,0
27.10.2020 03:00:00 6,9 5,6 - - 0,0
27.10.2020 02:00:00 7,0 5,9 - - 0,0
27.10.2020 01:00:00 6,5 5,3 - - 0,0
27.10.2020 00:00:00 6,8 5,2 - - 0,0
26.10.2020 23:00:00 7,1 5,5 - - 0,0
26.10.2020 22:00:00 7,2 5,4 - - 0,0
26.10.2020 21:00:00 7,7 5,6 - - 0,0
26.10.2020 20:00:00 8,3 6,3 - - 0,0
26.10.2020 19:00:00 7,4 6,1 - - 0,0
26.10.2020 18:00:00 9,5 6,9 - - 0,0
26.10.2020 17:00:00 10,2 7,2 - - 0,0
26.10.2020 16:00:00 11,5 7,2 - - 0,0
26.10.2020 15:00:00 12,5 8,2 - - 0,0
26.10.2020 14:00:00 12,8 9,4 - - 0,2
26.10.2020 13:00:00 10,9 8,6 - - 0,4
26.10.2020 12:00:00 10,7 7,8 - - 0,2
26.10.2020 11:00:00 10,9 7,0 - - 0,0
26.10.2020 10:00:00 10,8 6,9 - - 0,0
26.10.2020 09:00:00 9,1 6,5 11,4 13,0 0,0
26.10.2020 08:00:00 7,0 5,9 - - 0,0
26.10.2020 07:00:00 5,8 5,0 - - 0,0
26.10.2020 06:00:00 5,8 5,1 - - 0,0
26.10.2020 05:00:00 6,0 5,3 - - 0,0
26.10.2020 04:00:00 5,7 5,1 - - 0,0
26.10.2020 03:00:00 6,2 5,4 - - 0,0
26.10.2020 02:00:00 7,0 6,1 - - 0,2
26.10.2020 01:00:00 7,3 6,5 - - 0,0
26.10.2020 00:00:00 6,0 5,7 - - 0,0
25.10.2020 23:00:00 6,6 5,7 - - 0,0
25.10.2020 22:00:00 6,8 5,8 - - 0,0
25.10.2020 21:00:00 8,0 6,9 - - 0,2
25.10.2020 20:00:00 9,2 7,2 - - 0,0
25.10.2020 19:00:00 8,8 6,9 - - 0,0
25.10.2020 18:00:00 8,5 6,3 - - 0,0
25.10.2020 17:00:00 9,8 6,6 - - 0,0
25.10.2020 16:00:00 11,3 6,6 - - 0,0
25.10.2020 15:00:00 13,0 6,2 - - 0,0
25.10.2020 14:00:00 13,1 5,9 - - 0,0
25.10.2020 13:00:00 13,3 6,4 - - 0,0
25.10.2020 12:00:00 12,6 7,7 - - 0,0
25.10.2020 11:00:00 13,0 8,4 - - 0,0
25.10.2020 10:00:00 10,7 8,1 - - 0,0
25.10.2020 09:00:00 9,4 7,2 12,0 13,0 0,0
25.10.2020 08:00:00 8,8 6,6 - - 0,0
25.10.2020 07:00:00 7,8 6,8 - - 0,2
25.10.2020 06:00:00 7,6 6,6 - - 0,0
25.10.2020 05:00:00 8,2 7,1 - - 0,0
25.10.2020 04:00:00 8,8 7,8 - - 0,0
25.10.2020 03:00:00 9,7 8,9 - - 0,0
25.10.2020 02:00:00 10,5 9,4 - - 0,0
25.10.2020 01:00:00 10,8 9,7 - - 0,0
25.10.2020 00:00:00 - - - - -
24.10.2020 23:00:00 11,4 10,3 - - 1,4
24.10.2020 22:00:00 12,4 11,8 - - 1,4
24.10.2020 21:00:00 12,3 11,5 - - 1,8
24.10.2020 20:00:00 12,5 11,6 - - 2,8
24.10.2020 19:00:00 13,7 12,6 - - 6,0
24.10.2020 18:00:00 15,8 12,3 - - 0,0
24.10.2020 17:00:00 15,6 12,7 - - 0,0
24.10.2020 16:00:00 15,3 12,5 - - 0,0
24.10.2020 15:00:00 15,0 11,9 - - 0,0
24.10.2020 14:00:00 15,3 11,3 - - 0,0
24.10.2020 13:00:00 15,0 11,3 - - 0,0
24.10.2020 12:00:00 14,5 11,0 - - 0,0
24.10.2020 11:00:00 13,1 10,4 - - 0,0
24.10.2020 10:00:00 12,4 9,6 - - 0,0
24.10.2020 09:00:00 11,3 8,4 11,9 13,0 0,0
24.10.2020 08:00:00 9,7 8,0 - - 0,0
24.10.2020 07:00:00 8,1 6,9 - - 0,0
24.10.2020 06:00:00 8,1 6,6 - - 0,0
24.10.2020 05:00:00 6,8 5,2 - - 0,0
24.10.2020 04:00:00 6,5 5,6 - - 0,0
24.10.2020 03:00:00 4,5 3,9 - - 0,0
24.10.2020 02:00:00 4,9 4,3 - - 0,0
24.10.2020 01:00:00 4,7 4,3 - - 0,2
24.10.2020 00:00:00 5,4 5,1 - - 0,0
23.10.2020 23:00:00 6,2 6,0 - - 0,0
23.10.2020 22:00:00 6,1 5,7 - - 0,0
23.10.2020 21:00:00 7,0 6,2 - - 0,0
23.10.2020 20:00:00 9,0 7,8 - - 0,0
23.10.2020 19:00:00 11,0 8,7 - - 0,0
23.10.2020 18:00:00 12,1 9,3 - - 0,0
23.10.2020 17:00:00 12,8 9,7 - - 0,0
23.10.2020 16:00:00 13,6 10,4 - - 0,0
23.10.2020 15:00:00 14,8 12,0 - - 0,0
23.10.2020 14:00:00 13,7 12,5 - - 0,6
23.10.2020 13:00:00 13,0 11,6 - - 2,8
23.10.2020 12:00:00 14,6 10,7 - - 0,0
23.10.2020 11:00:00 14,5 10,5 - - 0,0
23.10.2020 10:00:00 14,0 10,9 - - 0,0
23.10.2020 09:00:00 13,5 11,4 12,2 13,0 0,0
23.10.2020 08:00:00 12,7 11,5 - - 0,2
23.10.2020 07:00:00 11,7 11,4 - - 0,0
23.10.2020 06:00:00 10,5 10,5 - - 0,0
23.10.2020 05:00:00 8,5 8,4 - - 0,0
23.10.2020 04:00:00 8,3 8,3 - - 0,0
23.10.2020 03:00:00 7,8 7,7 - - 0,0
23.10.2020 02:00:00 7,5 7,4 - - 0,0
23.10.2020 01:00:00 6,8 6,7 - - 0,0
23.10.2020 00:00:00 7,2 7,2 - - 0,0
22.10.2020 23:00:00 6,0 5,9 - - 0,0
22.10.2020 22:00:00 5,8 5,7 - - 0,0
22.10.2020 21:00:00 4,7 4,3 - - 0,0
22.10.2020 20:00:00 5,8 5,2 - - 0,0
22.10.2020 19:00:00 7,3 6,6 - - 0,0
22.10.2020 18:00:00 8,8 7,2 - - 0,0
22.10.2020 17:00:00 12,1 8,5 - - 0,0
22.10.2020 16:00:00 13,3 8,5 - - 0,0
22.10.2020 15:00:00 13,6 8,3 - - 0,0
22.10.2020 14:00:00 14,7 8,7 - - 0,0
22.10.2020 13:00:00 15,1 8,6 - - 0,0
22.10.2020 12:00:00 14,7 11,2 - - 0,0
22.10.2020 11:00:00 12,3 11,2 - - 0,2
22.10.2020 10:00:00 11,9 10,9 - - 1,8
22.10.2020 09:00:00 13,1 10,3 12,7 13,0 0,0
22.10.2020 08:00:00 12,8 10,5 - - 0,0
22.10.2020 07:00:00 12,7 10,1 - - 0,0
22.10.2020 06:00:00 12,3 10,1 - - 0,0
22.10.2020 05:00:00 12,6 10,1 - - 0,0
22.10.2020 04:00:00 12,6 10,1 - - 0,0
22.10.2020 03:00:00 13,0 10,2 - - 0,0
22.10.2020 02:00:00 12,6 10,2 - - 0,0
22.10.2020 01:00:00 12,2 9,6 - - 0,0
22.10.2020 00:00:00 13,8 11,5 - - 0,0
21.10.2020 23:00:00 13,4 12,2 - - 0,0
21.10.2020 22:00:00 13,3 12,3 - - 0,0
21.10.2020 21:00:00 13,5 12,5 - - 0,0
21.10.2020 20:00:00 13,6 12,6 - - 0,0
21.10.2020 19:00:00 13,5 13,1 - - 0,0
21.10.2020 18:00:00 13,2 12,9 - - 0,0
21.10.2020 17:00:00 13,6 13,2 - - 0,4

tt = Température de l'air
td = dewpoint
tt -20cm = Température de l'air -20cm
tt -100cm = Température de l'air -100cm
rr = Quantités de précipitations

stations d'obs. à proximité